When you browse on this site, cookies collect data to enhance your experience and personalize the content and advertising you see.
Visit our Privacy Policy to learn more. By continuing to use the site, you agree to this use of cookies and data.
  • In Czech Republic
  • List of Countries
  • For 7 days
  • Water Temperature
  • Satellite Maps
  • Weather Map
  • Weather Widgets
  • user-avatar
    Login

    Hourly Weather Gurevka

    Today, 18 February, Monday

    Time Temperature Precipitation Wind Pressure Humidity
    00:00 -3°C° 0.1 mm 7 mps 735 mmHg 82%
    01:00 -5°C° 0 mm 8 mps 735 mmHg 83%
    02:00 -5°C° 0 mm 8 mps 736 mmHg 83%
    03:00 -5°C° 0 mm 8 mps 735 mmHg 84%
    04:00 -5°C° 0.1 mm 8 mps 736 mmHg 83%
    05:00 -5°C° 0.1 mm 9 mps 737 mmHg 82%
    06:00 -5°C° 0.1 mm 9 mps 737 mmHg 81%
    07:00 -6°C° 0.1 mm 9 mps 738 mmHg 80%
    08:00 -7°C° 0.1 mm 10 mps 739 mmHg 80%
    09:00 -7°C° 0.1 mm 10 mps 739 mmHg 79%
    10:00 -7°C° 0.1 mm 10 mps 740 mmHg 78%
    11:00 -7°C° 0.1 mm 10 mps 741 mmHg 77%
    12:00 -7°C° 0.1 mm 10 mps 742 mmHg 75%
    13:00 -7°C° 0 mm 10 mps 742 mmHg 75%
    14:00 -8°C° 0 mm 10 mps 743 mmHg 74%
    15:00 -8°C° 0 mm 10 mps 744 mmHg 73%
    16:00 -8°C° 0 mm 9 mps 744 mmHg 74%
    17:00 -8°C° 0 mm 8 mps 745 mmHg 75%
    18:00 -8°C° 0 mm 8 mps 746 mmHg 76%
    19:00 -9°C° 0 mm 7 mps 747 mmHg 78%
    20:00 -9°C° 0 mm 7 mps 747 mmHg 80%
    21:00 -10°C° 0 mm 6 mps 748 mmHg 83%
    22:00 -10°C° 0 mm 6 mps 749 mmHg 83%
    23:00 -11°C° 0 mm 6 mps 749 mmHg 84%

    Tomorrow, 19 February, Tuesday

    Time Temperature Precipitation Wind Pressure Humidity
    00:00 -11°C° 0 mm 5 mps 750 mmHg 85%
    01:00 -12°C° 0 mm 5 mps 750 mmHg 86%
    02:00 -12°C° 0 mm 5 mps 751 mmHg 88%
    03:00 -12°C° 0 mm 4 mps 751 mmHg 89%
    04:00 -12°C° 0 mm 4 mps 752 mmHg 90%
    05:00 -12°C° 0 mm 3 mps 752 mmHg 91%
    06:00 -13°C° 0 mm 3 mps 752 mmHg 92%
    07:00 -13°C° 0 mm 3 mps 753 mmHg 92%
    08:00 -13°C° 0 mm 3 mps 753 mmHg 91%
    09:00 -12°C° 0 mm 3 mps 754 mmHg 90%
    10:00 -10°C° 0 mm 3 mps 754 mmHg 88%
    11:00 -9°C° 0 mm 3 mps 754 mmHg 85%
    12:00 -8°C° 0 mm 3 mps 754 mmHg 83%
    13:00 -8°C° 0 mm 3 mps 753 mmHg 82%
    14:00 -8°C° 0 mm 4 mps 753 mmHg 81%
    15:00 -8°C° 0 mm 4 mps 753 mmHg 81%
    16:00 -8°C° 0 mm 4 mps 753 mmHg 83%
    17:00 -9°C° 0 mm 4 mps 752 mmHg 86%
    18:00 -10°C° 0 mm 4 mps 752 mmHg 88%
    19:00 -11°C° 0 mm 5 mps 752 mmHg 88%
    20:00 -11°C° 0 mm 5 mps 752 mmHg 88%
    21:00 -11°C° 0 mm 5 mps 751 mmHg 88%
    22:00 -11°C° 0 mm 5 mps 751 mmHg 88%
    23:00 -11°C° 0 mm 5 mps 751 mmHg 88%

    Day after tomorrow, 20 February, Wednesday

    Time Temperature Precipitation Wind Pressure Humidity
    00:00 -11°C° 0 mm 5 mps 750 mmHg 88%
    01:00 -11°C° 0 mm 5 mps 750 mmHg 87%
    02:00 -11°C° 0 mm 5 mps 750 mmHg 87%
    03:00 -11°C° 0 mm 5 mps 750 mmHg 86%
    04:00 -11°C° 0 mm 6 mps 749 mmHg 85%
    05:00 -11°C° 0 mm 6 mps 748 mmHg 85%
    06:00 -11°C° 0 mm 6 mps 748 mmHg 84%
    07:00 -10°C° 0 mm 6 mps 747 mmHg 83%
    08:00 -10°C° 0 mm 6 mps 747 mmHg 82%
    09:00 -11°C° 0 mm 7 mps 747 mmHg 81%
    10:00 -8°C° 0 mm 7 mps 747 mmHg 79%
    11:00 -7°C° 0 mm 7 mps 746 mmHg 78%
    12:00 -6°C° 0 mm 8 mps 746 mmHg 76%
    13:00 -6°C° 0 mm 8 mps 746 mmHg 76%
    14:00 -4°C° 0 mm 7 mps 745 mmHg 76%
    15:00 -4°C° 0 mm 7 mps 745 mmHg 76%
    16:00 -4°C° 0 mm 7 mps 745 mmHg 80%
    17:00 -4°C° 0 mm 7 mps 744 mmHg 84%
    18:00 -4°C° 0 mm 6 mps 744 mmHg 88%
    19:00 -4°C° 0.1 mm 6 mps 744 mmHg 89%
    20:00 -4°C° 0.1 mm 6 mps 744 mmHg 90%
    21:00 -3°C° 0.1 mm 6 mps 743 mmHg 91%
    22:00 -3°C° 0 mm 6 mps 743 mmHg 92%
    23:00 -3°C° 0 mm 6 mps 743 mmHg 93%

    21 February, Thursday

    Time Temperature Precipitation Wind Pressure Humidity
    00:00 -3°C° 0 mm 6 mps 742 mmHg 93%
    01:00 -3°C° 0.2 mm 6 mps 742 mmHg 93%
    02:00 -2°C° 0.2 mm 5 mps 742 mmHg 94%
    03:00 -2°C° 0.2 mm 5 mps 742 mmHg 94%
    04:00 -2°C° 0.2 mm 5 mps 741 mmHg 94%
    05:00 -2°C° 0.2 mm 5 mps 741 mmHg 94%
    06:00 -2°C° 0.2 mm 5 mps 740 mmHg 94%
    07:00 -3°C° 0 mm 6 mps 740 mmHg 93%
    08:00 -3°C° 0 mm 6 mps 740 mmHg 93%
    09:00 -3°C° 0 mm 7 mps 739 mmHg 92%
    10:00 -3°C° 0.1 mm 7 mps 739 mmHg 92%
    11:00 -3°C° 0.1 mm 7 mps 739 mmHg 91%
    12:00 -2°C° 0.1 mm 7 mps 738 mmHg 91%
    13:00 -3°C° 0.2 mm 7 mps 738 mmHg 87%
    14:00 -3°C° 0.2 mm 7 mps 738 mmHg 83%
    15:00 -3°C° 0.2 mm 7 mps 738 mmHg 79%
    16:00 -4°C° 0 mm 7 mps 738 mmHg 80%
    17:00 -5°C° 0 mm 6 mps 738 mmHg 81%
    18:00 -6°C° 0 mm 5 mps 738 mmHg 83%
    19:00 -8°C° 0.1 mm 6 mps 739 mmHg 81%
    20:00 -8°C° 0.1 mm 6 mps 739 mmHg 80%
    21:00 -8°C° 0.1 mm 6 mps 739 mmHg 79%
    22:00 -9°C° 0 mm 6 mps 739 mmHg 81%
    23:00 -10°C° 0 mm 6 mps 740 mmHg 84%

    22 February, Friday

    Time Temperature Precipitation Wind Pressure Humidity
    00:00 -10°C° 0 mm 6 mps 740 mmHg 86%
    01:00 -11°C° 0.1 mm 7 mps 740 mmHg 86%
    02:00 -11°C° 0.1 mm 7 mps 740 mmHg 86%
    03:00 -10°C° 0.1 mm 8 mps 740 mmHg 85%
    04:00 -10°C° 0.1 mm 8 mps 741 mmHg 85%
    05:00 -10°C° 0.1 mm 8 mps 741 mmHg 84%
    06:00 -10°C° 0.1 mm 8 mps 741 mmHg 83%
    07:00 -11°C° 0 mm 8 mps 742 mmHg 83%
    08:00 -11°C° 0 mm 8 mps 743 mmHg 83%
    09:00 -12°C° 0 mm 8 mps 744 mmHg 83%
    10:00 -12°C° 0 mm 7 mps 744 mmHg 82%
    11:00 -12°C° 0 mm 7 mps 745 mmHg 81%
    12:00 -12°C° 0 mm 7 mps 746 mmHg 81%
    13:00 -12°C° 0.1 mm 7 mps 746 mmHg 80%
    14:00 -13°C° 0.1 mm 7 mps 747 mmHg 80%
    15:00 -13°C° 0.1 mm 7 mps 748 mmHg 79%
    16:00 -14°C° 0.1 mm 7 mps 748 mmHg 80%
    17:00 -14°C° 0.1 mm 7 mps 749 mmHg 81%
    18:00 -15°C° 0.1 mm 7 mps 749 mmHg 81%
    19:00 -15°C° 0 mm 7 mps 750 mmHg 81%
    20:00 -15°C° 0 mm 7 mps 751 mmHg 80%
    21:00 -15°C° 0 mm 7 mps 752 mmHg 80%
    22:00 -16°C° 0 mm 6 mps 752 mmHg 81%
    23:00 -16°C° 0 mm 6 mps 752 mmHg 82%

    23 February, Saturday

    Time Temperature Precipitation Wind Pressure Humidity
    00:00 -17°C° 0 mm 5 mps 753 mmHg 84%
    01:00 -17°C° 0 mm 5 mps 753 mmHg 84%
    02:00 -17°C° 0 mm 5 mps 754 mmHg 85%
    03:00 -17°C° 0 mm 5 mps 754 mmHg 86%
    04:00 -17°C° 0 mm 6 mps 754 mmHg 85%
    05:00 -17°C° 0 mm 6 mps 754 mmHg 85%
    06:00 -17°C° 0 mm 6 mps 754 mmHg 85%
    07:00 -17°C° 0 mm 6 mps 755 mmHg 85%
    08:00 -17°C° 0 mm 5 mps 755 mmHg 85%
    09:00 -17°C° 0 mm 5 mps 755 mmHg 84%
    10:00 -17°C° 0 mm 5 mps 755 mmHg 83%
    11:00 -15°C° 0 mm 5 mps 755 mmHg 82%
    12:00 -15°C° 0 mm 5 mps 755 mmHg 81%
    13:00 -15°C° 0 mm 5 mps 755 mmHg 80%
    14:00 -14°C° 0 mm 4 mps 755 mmHg 80%
    15:00 -14°C° 0 mm 4 mps 754 mmHg 80%
    16:00 -15°C° 0 mm 4 mps 754 mmHg 83%
    17:00 -14°C° 0 mm 3 mps 754 mmHg 86%
    18:00 -14°C° 0 mm 2 mps 754 mmHg 89%
    19:00 -14°C° 0 mm 2 mps 754 mmHg 90%
    20:00 -14°C° 0 mm 2 mps 754 mmHg 90%
    21:00 -13°C° 0 mm 1 mps 754 mmHg 90%
    22:00 -13°C° 0 mm 1 mps 753 mmHg 90%
    23:00 -13°C° 0 mm 1 mps 753 mmHg 89%
    Show more